map of BTU home
Great Circle Mapper logo
BTU - Airport
Location
City:  Bintulu, Sarawak, Borneo, Malaysia
ICAO / IATA:WBGB / BTU

Details
Type:Airport (Aerodrome, Airfield)
Use:Public/Civil
Latitude:307'26"N (3.123850)
Longitude:11301'14"E (113.020472)
Datum:WGS 1984
Elevation:74 ft (23 m)
Variation:0.3E (WMM2015 magnetic declination)
Runways:1
Longest:9006 × 147 ft (2745 × 45 m), paved

Time
Time Zone:UTC+8
Local Time:

Weather
METAR:WBGB 202000Z 08003KT 9999 -RA FEW005 SCT014 OVC140 25/25 Q1007
TAF:WBGB 201700Z 2018/2118 18005KT 9999 SCT016 BKN150
TEMPO 2110/2113 3000 TSRA SCT014 FEW015CB BKN150 PROB40
TEMPO 2114/2117 4000 RA SCT014 OVC140

Related Locations
Nearby:
Farthest:FBA: 12368 mi / 19904 km
Fonte Boa, AM, BR

Find:

   beyond  
but within

Other Information
Maps:
NOTAMs:
Links:
Sources:

  
flag of Malaysia   

Sectional Chart

Flight Planning
at skyvector.com

Satellite Image

Google Maps Satellite View

 

Copyright © 2004-2014 Karl L. Swartz. All rights reserved.
The Great Circle Mapper name and logo are trademarks of the Great Circle Mapper.
All other trademarks mentioned herein belong to their respective owners.
Please see credits for attibutions and further copyright information.

  Follow gcmap on Facebook Follow gcmap on Twitter

hCard Microformat

Geo Microformat